Forside
METAR-TAF:

METAR-TAF

Lufthavne :

Monroe Municipal Airport

Monroe, Wisconsin, USA

Breddekreds: 42-36-54N, længdekreds: 089-35-27W, højde: 331 m

Aktuelle vejr

Denne rapport blev lavet for 19 minutter siden, kl. 00:55 UTC
Vind 5 kt fra nord
Temperatur 16°C
Fugtighed 42%
Tryk 1013 hPa
Sigt: 16.1 km
Spredte skyer i en højde af 7500 ft

METAR: KEFT 220055Z AUTO 35005KT 10SM SCT075 16/03 A2991 RMK AO2 T01580026

Tid: 20:14 (01:14 UTC)


TAF: fraværende

Vejrobservationer og prognoser fra mere end 4000 lufthavne (METAR og TAF).

De gule og røde prikker repræsenterer de meteorologiske stationer.

Flyt musen over at se navnet på stationen.

Så klik over at se vejr observationer og prognoser.

At skifte det kort: Klik på de grønne knapper med et sort kors for at zoome ind; på den grønne knap med en bindestreg for at zoome ud; eller på de grønne pile for tilstødende kort.


METAR-TAF: